Time,TemperatureF,DewpointF,PressureIn,WindDirection,WindDirectionDegrees,WindSpeedMPH,WindSpeedGustMPH,Humidity,HourlyPrecipIn,Conditions,Clouds,dailyrainin,SoftwareType,DateUTC
2015-04-20 00:21:00,22.0,15.0,-100.00,South,184,2.0,6.0,74,-99.99,,,-99.99,,2015-04-20 06:21:00,
2015-04-20 00:31:00,22.0,15.0,-100.00,South,184,2.0,6.0,74,-99.99,,,-99.99,,2015-04-20 06:31:00,
2015-04-20 00:42:00,22.0,15.0,-100.00,South,184,2.0,6.0,74,-99.99,,,-99.99,,2015-04-20 06:42:00,
2015-04-20 00:51:00,22.0,15.0,-100.00,South,184,2.0,6.0,74,-99.99,,,-99.99,,2015-04-20 06:51:00,
2015-04-20 01:21:00,21.0,15.0,-100.00,SSE,158,2.0,4.0,77,-99.99,,,-99.99,,2015-04-20 07:21:00,
2015-04-20 01:31:00,21.0,15.0,-100.00,SSE,158,2.0,4.0,77,-99.99,,,-99.99,,2015-04-20 07:31:00,
2015-04-20 01:41:00,21.0,15.0,-100.00,SSE,158,2.0,4.0,77,-99.99,,,-99.99,,2015-04-20 07:41:00,
2015-04-20 01:51:00,21.0,15.0,-100.00,SSE,158,2.0,4.0,77,-99.99,,,-99.99,,2015-04-20 07:51:00,
2015-04-20 02:21:00,21.0,16.0,-100.00,WSW,241,3.0,4.0,82,-99.99,,,-99.99,,2015-04-20 08:21:00,
2015-04-20 02:31:00,21.0,16.0,-100.00,WSW,241,3.0,4.0,82,-99.99,,,-99.99,,2015-04-20 08:31:00,
2015-04-20 02:41:00,21.0,16.0,-100.00,WSW,241,3.0,4.0,82,-99.99,,,-99.99,,2015-04-20 08:41:00,
2015-04-20 02:51:00,21.0,16.0,-100.00,WSW,241,3.0,4.0,82,-99.99,,,-99.99,,2015-04-20 08:51:00,
2015-04-20 03:21:00,21.0,16.0,-100.00,WSW,246,3.0,5.0,79,-99.99,,,-99.99,,2015-04-20 09:21:00,
2015-04-20 03:31:00,21.0,16.0,-100.00,WSW,246,3.0,5.0,79,-99.99,,,-99.99,,2015-04-20 09:31:00,
2015-04-20 03:41:00,21.0,16.0,-100.00,WSW,246,3.0,5.0,79,-99.99,,,-99.99,,2015-04-20 09:41:00,
2015-04-20 03:51:00,21.0,16.0,-100.00,WSW,246,3.0,5.0,79,-99.99,,,-99.99,,2015-04-20 09:51:00,
2015-04-20 04:21:00,20.0,16.0,-100.00,West,280,3.0,6.0,85,-99.99,,,-99.99,,2015-04-20 10:21:00,
2015-04-20 04:31:00,20.0,16.0,-100.00,West,280,3.0,6.0,85,-99.99,,,-99.99,,2015-04-20 10:31:00,
2015-04-20 04:41:00,20.0,16.0,-100.00,West,280,3.0,6.0,85,-99.99,,,-99.99,,2015-04-20 10:41:00,
2015-04-20 04:52:00,20.0,16.0,-100.00,West,280,3.0,6.0,85,-99.99,,,-99.99,,2015-04-20 10:52:00,
2015-04-20 05:21:00,20.0,18.0,-100.00,West,278,3.0,5.0,90,-99.99,,,-99.99,,2015-04-20 11:21:00,
2015-04-20 05:31:00,20.0,18.0,-100.00,West,278,3.0,5.0,90,-99.99,,,-99.99,,2015-04-20 11:31:00,
2015-04-20 05:42:00,20.0,18.0,-100.00,West,278,3.0,5.0,90,-99.99,,,-99.99,,2015-04-20 11:42:00,
2015-04-20 05:52:00,20.0,18.0,-100.00,West,278,3.0,5.0,90,-99.99,,,-99.99,,2015-04-20 11:52:00,
2015-04-20 06:21:00,22.0,20.0,-100.00,WSW,237,3.0,6.0,92,-99.99,,,-99.99,,2015-04-20 12:21:00,
2015-04-20 06:31:00,22.0,20.0,-100.00,WSW,237,3.0,6.0,92,-99.99,,,-99.99,,2015-04-20 12:31:00,
2015-04-20 06:42:00,22.0,20.0,-100.00,WSW,237,3.0,6.0,92,-99.99,,,-99.99,,2015-04-20 12:42:00,
2015-04-20 06:52:00,22.0,20.0,-100.00,WSW,237,3.0,6.0,92,-99.99,,,-99.99,,2015-04-20 12:52:00,
2015-04-20 07:21:00,23.0,21.0,-100.00,NW,311,5.0,9.0,92,-99.99,,,-99.99,,2015-04-20 13:21:00,
2015-04-20 07:31:00,23.0,21.0,-100.00,NW,311,5.0,9.0,92,-99.99,,,-99.99,,2015-04-20 13:31:00,
2015-04-20 07:41:00,23.0,21.0,-100.00,NW,311,5.0,9.0,92,-99.99,,,-99.99,,2015-04-20 13:41:00,
2015-04-20 07:51:00,23.0,21.0,-100.00,NW,311,5.0,9.0,92,-99.99,,,-99.99,,2015-04-20 13:51:00,
2015-04-20 08:21:00,29.0,22.0,-100.00,NNW,332,5.0,11.0,75,-99.99,,,-99.99,,2015-04-20 14:21:00,
2015-04-20 08:31:00,29.0,22.0,-100.00,NNW,332,5.0,11.0,75,-99.99,,,-99.99,,2015-04-20 14:31:00,
2015-04-20 08:41:00,29.0,22.0,-100.00,NNW,332,5.0,11.0,75,-99.99,,,-99.99,,2015-04-20 14:41:00,
2015-04-20 08:51:00,29.0,22.0,-100.00,NNW,332,5.0,11.0,75,-99.99,,,-99.99,,2015-04-20 14:51:00,
2015-04-20 09:21:00,34.0,23.0,-100.00,NNW,344,7.0,14.0,65,-99.99,,,-99.99,,2015-04-20 15:21:00,
2015-04-20 09:31:00,34.0,23.0,-100.00,NNW,344,7.0,14.0,65,-99.99,,,-99.99,,2015-04-20 15:31:00,
2015-04-20 09:41:00,34.0,23.0,-100.00,NNW,344,7.0,14.0,65,-99.99,,,-99.99,,2015-04-20 15:41:00,
2015-04-20 09:51:00,34.0,23.0,-100.00,NNW,344,7.0,14.0,65,-99.99,,,-99.99,,2015-04-20 15:51:00,
2015-04-20 10:31:00,41.0,22.0,-100.00,NNW,328,9.0,18.0,46,-99.99,,,-99.99,,2015-04-20 16:31:00,
2015-04-20 10:41:00,41.0,22.0,-100.00,NNW,328,9.0,18.0,46,-99.99,,,-99.99,,2015-04-20 16:41:00,
2015-04-20 10:52:00,41.0,22.0,-100.00,NNW,328,9.0,18.0,46,-99.99,,,-99.99,,2015-04-20 16:52:00,
2015-04-20 11:32:00,40.0,20.0,-100.00,NNW,339,9.0,19.0,45,-99.99,,,-99.99,,2015-04-20 17:32:00,
2015-04-20 11:42:00,40.0,20.0,-100.00,NNW,339,9.0,19.0,45,-99.99,,,-99.99,,2015-04-20 17:42:00,
2015-04-20 11:52:00,40.0,20.0,-100.00,NNW,339,9.0,19.0,45,-99.99,,,-99.99,,2015-04-20 17:52:00,
2015-04-20 12:22:00,39.0,25.0,-100.00,North,351,11.0,23.0,56,-99.99,,,-99.99,,2015-04-20 18:22:00,
2015-04-20 12:32:00,39.0,25.0,-100.00,North,351,11.0,23.0,56,-99.99,,,-99.99,,2015-04-20 18:32:00,
2015-04-20 12:42:00,39.0,25.0,-100.00,North,351,11.0,23.0,56,-99.99,,,-99.99,,2015-04-20 18:42:00,
2015-04-20 12:52:00,39.0,25.0,-100.00,North,351,11.0,23.0,56,-99.99,,,-99.99,,2015-04-20 18:52:00,
2015-04-20 13:22:00,41.0,22.0,-100.00,NNW,342,10.0,20.0,46,-99.99,,,-99.99,,2015-04-20 19:22:00,
2015-04-20 13:32:00,41.0,22.0,-100.00,NNW,342,10.0,20.0,46,-99.99,,,-99.99,,2015-04-20 19:32:00,
2015-04-20 13:42:00,41.0,22.0,-100.00,NNW,342,10.0,20.0,46,-99.99,,,-99.99,,2015-04-20 19:42:00,
2015-04-20 13:51:00,41.0,22.0,-100.00,NNW,342,10.0,20.0,46,-99.99,,,-99.99,,2015-04-20 19:51:00,
2015-04-20 14:21:00,42.0,24.0,-100.00,NNW,330,9.0,19.0,48,-99.99,,,-99.99,,2015-04-20 20:21:00,
2015-04-20 14:31:00,42.0,24.0,-100.00,NNW,330,9.0,19.0,48,-99.99,,,-99.99,,2015-04-20 20:31:00,
2015-04-20 14:41:00,42.0,24.0,-100.00,NNW,330,9.0,19.0,48,-99.99,,,-99.99,,2015-04-20 20:41:00,
2015-04-20 14:51:00,42.0,24.0,-100.00,NNW,330,9.0,19.0,48,-99.99,,,-99.99,,2015-04-20 20:51:00,
2015-04-20 15:51:00,45.0,15.0,-100.00,West,272,11.0,21.0,29,-99.99,,,-99.99,,2015-04-20 21:51:00,
2015-04-20 16:21:00,44.0,19.0,-100.00,NNW,341,10.0,20.0,36,-99.99,,,-99.99,,2015-04-20 22:21:00,
2015-04-20 16:31:00,44.0,19.0,-100.00,NNW,341,10.0,20.0,36,-99.99,,,-99.99,,2015-04-20 22:31:00,
2015-04-20 16:41:00,44.0,19.0,-100.00,NNW,341,10.0,20.0,36,-99.99,,,-99.99,,2015-04-20 22:41:00,
2015-04-20 16:51:00,44.0,19.0,-100.00,NNW,341,10.0,20.0,36,-99.99,,,-99.99,,2015-04-20 22:51:00,
2015-04-20 17:21:00,42.0,14.0,-100.00,West,280,10.0,20.0,31,-99.99,,,-99.99,,2015-04-20 23:21:00,
2015-04-20 17:31:00,42.0,14.0,-100.00,West,280,10.0,20.0,31,-99.99,,,-99.99,,2015-04-20 23:31:00,
2015-04-20 17:41:00,42.0,14.0,-100.00,West,280,10.0,20.0,31,-99.99,,,-99.99,,2015-04-20 23:41:00,
2015-04-20 17:51:00,42.0,14.0,-100.00,West,280,10.0,20.0,31,-99.99,,,-99.99,,2015-04-20 23:51:00,
2015-04-20 18:21:00,36.0,20.0,-100.00,NNW,341,13.0,23.0,52,-99.99,,,-99.99,,2015-04-21 00:21:00,
2015-04-20 18:31:00,36.0,20.0,-100.00,NNW,341,13.0,23.0,52,-99.99,,,-99.99,,2015-04-21 00:31:00,
2015-04-20 18:41:00,36.0,20.0,-100.00,NNW,341,13.0,23.0,52,-99.99,,,-99.99,,2015-04-21 00:41:00,
2015-04-20 18:51:00,36.0,20.0,-100.00,NNW,341,13.0,23.0,52,-99.99,,,-99.99,,2015-04-21 00:51:00,
2015-04-20 19:21:00,32.0,21.0,-100.00,NNW,334,4.0,24.0,64,-99.99,,,-99.99,,2015-04-21 01:21:00,
2015-04-20 19:31:00,32.0,21.0,-100.00,NNW,334,4.0,24.0,64,-99.99,,,-99.99,,2015-04-21 01:31:00,
2015-04-20 19:41:00,32.0,21.0,-100.00,NNW,334,4.0,24.0,64,-99.99,,,-99.99,,2015-04-21 01:41:00,
2015-04-20 19:51:00,32.0,21.0,-100.00,NNW,334,4.0,24.0,64,-99.99,,,-99.99,,2015-04-21 01:51:00,